Погода в Мысе

Россия / Омская область     56°20′56″N   75°26′17″E
темп.,
°C
ветер,
м/с
пор.,
м/с
влажн.,
%
обл.,
%
осадки,
мм/ч
давл.,
гПа
погр.,
м
11 мая, вт
вт1100:00+11ссв265333 0.0 1023116
03:00+7св34653 0.0 102347
06:00+7ссв39720 0.0 1024200
09:00+13св57470 0.0 10231073
12:00+16ссв57300 0.0 10231845
15:00+18ссв56230 0.0 10232222
18:00+18ссв56240 0.0 10232210
21:00+12ссв33370 0.0 102419
12 мая, ср
ср1200:00+10ссв11440 0.0 102410
03:00+8з11465 0.0 102310
06:00+9зюз224877 0.0 102324
09:00+16зюз343672 0.0 1021395
12:00+21з4730100 0.0 10192274
15:00+19зсз5844100 0.2 10182013
18:00+17ссз885737 0.5 10191459
21:00+13ссз4951100 0.0 1019257
13 мая, чт
чт1300:00+10с3758100 0.0 1021199
03:00+7ссз347512 0.0 102173
06:00+7сз26795 0.0 1021157
09:00+13ссз573117 0.0 10211069
12:00+17ссз563139 0.0 10201615
15:00+19сз573466 0.0 10182140
18:00+16зсз674762 0.0 1019902
21:00+13сз367599 0.1 1019118
14 мая, пт
пт1400:00+11ссз4108877 0.3 1021274
03:00+9с5108133 0.0 1023356
06:00+7с48820 0.0 1025435
09:00+11с46430 0.0 1026747
12:00+16ссз45231 0.0 10251212
15:00+19зсз55235 0.0 10241455
18:00+19зсз56275 0.0 10231365
21:00+15зюз464434 0.0 102382
15 мая, сб
сб1500:00+13юз4115189 0.0 1022189
03:00+13зюз5145773 0.0 1020289
06:00+13юз247444 0.8 102098
09:00+20зсз35545 0.0 1019382
12:00+25зсз58378 0.0 10181829
15:00+26зсз5736100 0.0 10172266
18:00+26зсз363691 0.1 10161771
21:00+18юз2264100 1.1 101635